Regional Weather Roundup
Issued by NWS Burlington, VT

Home | Current Version | Previous Version | Graphics & Text | Print | Product List | Glossary On
Versions: 1 2 3 4 5 6 7 8 9 10 11 12 13 14 15 16 17 18 19 20 21 22 23 24 25 26 27 28 29 30 31 32 33 34 35 36 37 38 39 40 41 42 43 44 45 46 47 48 49 50
000
ASUS41 KBTV 221010
RWRBTV
VERMONT REGIONAL WEATHER ROUNDUP
NATIONAL WEATHER SERVICE BURLINGTON VT
500 AM EST WED NOV 22 2017

NOTE: "FAIR" INDICATES FEW OR NO CLOUDS BELOW 12,000 FEET WITH NO
SIGNIFICANT WEATHER AND/OR OBSTRUCTIONS TO VISIBILITY.

* THESE REPORTS ARE NOT UNDER NWS QUALITY CONTROL AND/OR DO NOT
  REPORT WEATHER SUCH AS PRECIPITATION AND FOG.

VTZ001>019-221100-
_____VERMONT_____


CITY           SKY/WX    TMP DP  RH WIND       PRES   REMARKS
BURLINGTON     CLOUDY    48  28  46 S12       29.88S
MONTPELIER     CLOUDY    34  27  75 CALM      29.93S
MORRISVILLE    PTCLDY    29  27  92 SW3       29.90S
LYNDONVILLE*   FAIR      35  27  73 CALM      29.93R
MIDDLEBURY*    FAIR      47  30  52 S7        29.90S
RUTLAND*       MOCLDY    35  26  69 SE9       29.92S WCI  28
SPRINGFIELD    CLOUDY    25  24  96 CALM      29.96S
HIGHGATE*      CLOUDY    45  30  55 S3        29.87S
NEWPORT*       FAIR      39  26  59 S7        29.90R
BENNINGTON     PTCLDY    39  31  72 CALM      29.90F
SUTTON*          N/A     34 N/A N/A MISG        N/A

_____LAKE CHAMPLAIN_____


CITY           SKY/WX    TMP DP  RH WIND       PRES   REMARKS
BURTON ISLAND*   N/A     46  36  66 SW12G18     N/A
COLCHESTER RF*   N/A     48  36  61 S18         N/A
DIAMOND ISL*     N/A     45  32  61 S9          N/A

$$

NYZ007-026>031-035-052-083-087-221100-
_____NORTHERN NEW YORK_____


CITY           SKY/WX    TMP DP  RH WIND       PRES   REMARKS
PLATTSBURGH    CLOUDY    36  28  73 CALM      29.87S
SARANAC LAKE   CLOUDY    36  30  79 SW6       29.84R WCI  31
MASSENA        FLURRIES  35  34  96 NW3       29.93R
OGDENSBURG*    LGT SNOW  33  32  96 CALM      29.92R
POTSDAM*       LGT SNOW  34  34 100 CALM      29.93R
WATERTOWN      RAIN      37  36  96 W7        29.94R FOG     WCI  32
FT DRUM        LGT RAIN  36  34  93 W6        29.91R WCI  31
ALBANY         CLOUDY    43  32  65 S6        29.91F
GLENS FALLS    CLOUDY    31  29  92 CALM      29.91F

$$
NHZ002-005-011-221100-
_____NEW HAMPSHIRE_____


CITY           SKY/WX    TMP DP  RH WIND       PRES   REMARKS
LEBANON        CLOUDY    26  24  92 CALM      29.95R
KEENE          CLOUDY    30  28  92 CALM      29.96F
MT WASHINGTON  PTCLDY    25  19  80 W40         N/A  WCI   6
PLYMOUTH       FAIR      24  23  97 CALM      29.99R
WHITEFIELD     PTCLDY    24  21  88 CALM      29.92R

$$

_____REGIONAL QUEBEC LOCATIONS_____


CITY           SKY/WX    TMP DP  RH WIND       PRES   REMARKS
MONTREAL       LGT RAIN  39  37  93 W6        29.87R
QUEBEC CITY    FRZ RAIN  32  30  93 CALM      29.87S
SHERBROOKE     PTCLDY    34  28  80 E2        29.89R

_____REGIONAL ONTARIO LOCATIONS_____


CITY           SKY/WX    TMP DP  RH WIND       PRES   REMARKS
OTTAWA         CLOUDY    32  32 100 S3        29.90R FOG

______KEY______
VSB  - VISIBILITY IN MILES
WCI  - WIND CHILL INDEX
HX   - HEAT INDEX
$$
NNNN



USA.gov is the U.S. government's official web portal to all federal, state and local government web resources and services.